DELTA 1 DEB, 39096

Orbit data source: Space-Track

DELTA 1 DEB, 39096 is space debris in SSO originally from a launch on Tue, 06 Nov 1973 UTC launched from the Air Force Western Test Range (AFWTR). Debris objects in space refer to the collection of defunct objects orbiting the Earth. Examples of debris include non-operational satellites, rocket bodies, and fragments generated from explosions, collisions, or faulty payload assembly.

Loading next visibility...
Identifier
39096, 1973-086HJ
Orbit
SSO
Country
Flag of USUS
Related business
Manufacturer
Unknown
Mission
Spacecraft
Bus & Motor
Unknown
Mass
Unknown
Launch date (UTC)
1973-11-06 (53 years ago)
Launch vehicle
Unknown
Launch site
Air Force Western Test Range (AFWTR)
Object type
Payload
Rocket body
Debris
Shape & HBR
Unknown shape, 0.1 m
Radar Cross Section
Medium (>0.1 m² and <1 m²)

Expand to show TLE details & history
Last TLE update: 4 days ago

TLE from 4 days ago
0 DELTA 1 DEB
1 39096U 73086HJ  26259.47405056 -.00000035  00000-0  44231-4 0  9993
2 39096 101.3709 164.7710 0075757 186.1474 173.8667 12.38207240568745
Epoch: 2026-09-16T11:22Z
TLE epoch observation values (Epoch: 2026-09-16T11:22:37.968Z)
Latitude
-0.00003°
Longitude
-1.31232°
Altitude
1,576.245 km
Speed
7.054 km/s
True Right ascension
10h 59m 05s
True Declination
0° 00' 00"
Sunlit
Object was in daylight at epoch
Visualization orbit readout
Latitude
Unknown
Longitude
Unknown
Altitude
Unknown
Speed
Unknown
Apparent Right ascension
Unknown
Apparent Declination
Unknown
Sunlit
N/A
Visualization observer readout
Local Sidereal Time
11:57:28
Azimuth
Unknown
Elevation
Unknown
Doppler factor
Unknown
Orbital elements
Apogee altitude
1,571.524 km
Perigee altitude
1,451.981 km
Semi-major axis
7,889.889 km
Eccentricity
0.00758
Inclination
101.3709°
RAAN
164.771°
Arg. of periapsis
186.1474°
True anomaly
173.95859°
Mean anomaly
173.8667°
Eccentric anomaly
173.91273°
Mean motion
3.09697 °/min
Orbital period
116.24 mins
BSTAR
0.000044231
Loading maneuver chart data...
Computing Atmospheric mass density...
Loading historical data...
Loading historical data...
Loading historical data...
Loading historical data...
Loading historical data...
Loading historical data...
Loading historical data...

Documentation

Showing up to 5 results
|